Baneberry, Tennessee
Current Conditions -  °F | °C
As of 4:35 AM on Saturday 29 Nov 2014 (Local Time) from KMOR Reporting Station
Clear Clear  
Wind Chill: 27°   Ceiling: Unl
Heat Index: 27°   Visibility: 10mi
Dew Point: 21°   Wind: 3mph
Humidity: 80%   Direction: 80°E
Pressure: 30.21"   Gusts: NA
Location:  36.0865°N, 83.3026°W
Report Text: KMOR 290935Z AUTO 08003KT 10SM CLR M03/M06 A3021 RMK
Loading
Personal Weather Stations






























Interactive Weather Map New forecast layout! Learn more

10-Day Weather Forecast

Advertisements
Track Severe Weather on mobile